This is the latest recevied weather packets stored in our database for station/object KC9MWQ-13. If no packets are shown the sender has not sent any weather packets the latest 10 day(s).
| Time | Temp. | Humidity | Pressure | Rain* | Wind** | Luminosity | Snow |
|---|---|---|---|---|---|---|---|
| 1777377698 | 13.89° C | 94% | 1012.1 hPa | 0 mm | - | 27 W/m² | - |
| 1777377393 | 13.89° C | 94% | 1011.9 hPa | 0 mm | - | 26 W/m² | - |
| 1777377090 | 13.89° C | 94% | 1011.7 hPa | 0 mm | - | 34 W/m² | - |
| 1777376787 | 13.89° C | 95% | 1011.7 hPa | 0 mm | - | 29 W/m² | - |
| 1777376485 | 13.89° C | 95% | 1011.7 hPa | 0 mm | - | 24 W/m² | - |
| 1777376180 | 13.89° C | 95% | 1011.5 hPa | 0 mm | - | 15 W/m² | - |
| 1777375876 | 13.89° C | 94% | 1011.4 hPa | 0 mm | - | 8 W/m² | - |
| 1777375570 | 13.89° C | 94% | 1011.2 hPa | 0 mm | - | 8 W/m² | - |
| 1777375266 | 13.89° C | 95% | 1011 hPa | 0 mm | - | 6 W/m² | - |
| 1777374962 | 14.44° C | 94% | 1010.9 hPa | 0 mm | - | 4 W/m² | - |
| 1777374658 | 14.44° C | 95% | 1010.5 hPa | 0 mm | - | 3 W/m² | - |
| 1777374354 | 14.44° C | 96% | 1010.7 hPa | 0 mm | - | 2 W/m² | - |
| 1777374051 | 14.44° C | 97% | 1010.7 hPa | 0 mm | - | 0 W/m² | - |
| 1777373746 | 14.44° C | 98% | 1010.7 hPa | 0 mm | - | 0 W/m² | - |
| 1777373445 | 14.44° C | 98% | 1010.4 hPa | 0 mm | - | 0 W/m² | - |
| 1777373139 | 14.44° C | 99% | 1010.2 hPa | 0 mm | - | 0 W/m² | - |
| 1777372835 | 14.44° C | 99% | 1010 hPa | 0 mm | - | 0 W/m² | - |
| 1777372530 | 15° C | 99% | 1010 hPa | 0 mm | - | 0 W/m² | - |
| 1777372228 | 15° C | 99% | 1010 hPa | 0 mm | - | 0 W/m² | - |
| 1777371922 | 15° C | 99% | 1009.8 hPa | 0 mm | - | 0 W/m² | - |
| 1777371619 | 15° C | 99% | 1009.9 hPa | 0 mm | - | 0 W/m² | - |
| 1777371316 | 15.56° C | 99% | 1009.6 hPa | 0 mm | - | 0 W/m² | - |
| 1777371012 | 15.56° C | 99% | 1009.6 hPa | 0 mm | - | 0 W/m² | - |
| 1777370708 | 15.56° C | 99% | 1009.6 hPa | 0 mm | - | 0 W/m² | - |
| 1777370404 | 15° C | 99% | 1009.3 hPa | 0 mm | - | 0 W/m² | - |
* Rain latest hour (hover to see other rain measurements)
** Current wind speed in m/s (hover to see current wind gust speed)